Weather History for Crockett, TX

Change the Weather History Date:

Friday, December 6, 2013

  Actual Average (KLFK) Record (KLFK)
Temperature  
Mean Temperature 36 °F 52 °F  
Max Temperature 39 °F 63 °F 86 °F (1927)
Min Temperature 32 °F 41 °F 15 °F (1950)
Degree Days  
Heating Degree Days 30 14  
Month to date heating degree days 78  
Since 1 July heating degree days 385  
Cooling Degree Days 0 0  
Month to date cooling degree days 4  
Year to date cooling degree days 2587  
Moisture  
Dew Point 33 °F    
Average Humidity 94    
Maximum Humidity 100    
Minimum Humidity 87    
Precipitation  
Precipitation 0.06 in 0.15 in 1.74 in (1976)
Month to date precipitation 0.93  
Year to date precipitation 45.44  
Snow  
Snow 0.00 in - - ()
Month to date snowfall  
Since 1 July snowfall  
Snow Depth -    
Sea Level Pressure  
Sea Level Pressure 30.26 in    
Wind  
Wind Speed 5 mph (NNW)    
Max Wind Speed 12 mph    
Max Gust Speed 17 mph    
Visibility 7 miles    
Events Rain    
T = Trace of Precipitation, MM = Missing Value Source: NWS Daily Summary

Daily Weather History Graph

Daily Weather History Graph

Search for Another Location

Airport:

Trip Planner

Search our weather history database for the weather conditions in past years. The results will help you decide how hot, cold, wet, or windy it might be!

Date:

Astronomy

Dec. 06, 2013 Rise Set
Actual Time 7:06 AM CST 5:18 PM CST
Civil Twilight 6:40 AM CST 5:45 PM CST
Nautical Twilight 6:10 AM CST 6:15 PM CST
Astronomical Twilight 5:40 AM CST 6:44 PM CST
Moon 10:21 AM CST (12/6) 9:41 PM CST (12/6)
Length of Visible Light 11h 04m
Length of Day
10h 11m
Waxing Crescent, 19% of the Moon is Illuminated
Dec 6
Waxing Crescent
Dec 9
First Quarter
Dec 17
Full
Dec 25
Last Quarter
Jan 1
New

Hourly Weather History & Observations

Time (CST) Temp. Windchill Dew Point Humidity Pressure Visibility Wind Dir Wind Speed Gust Speed Precip Events Conditions
12:15 AM 35.6 °F 31.7 °F 35.6 °F 100% 30.10 in 2.5 mi North 4.6 mph - N/A   Overcast
12:35 AM 35.6 °F 32.8 °F 35.6 °F 100% 30.09 in 2.5 mi NNW 3.5 mph - N/A   Overcast
12:55 AM 35.6 °F 32.8 °F 35.6 °F 100% 30.08 in 2.0 mi North 3.5 mph - N/A   Overcast
1:15 AM 35.6 °F 30.7 °F 35.6 °F 100% 30.07 in 2.0 mi North 5.8 mph - N/A   Overcast
1:35 AM 35.6 °F - 35.6 °F 100% 30.07 in 1.5 mi Calm Calm - N/A   Overcast
1:55 AM 35.6 °F - 35.6 °F 100% 30.07 in 1.8 mi Calm Calm - N/A   Overcast
2:15 AM 35.6 °F 29.9 °F 35.6 °F 100% 30.07 in 1.5 mi North 6.9 mph - N/A   Overcast
2:35 AM 37.4 °F - 35.6 °F 93% 30.07 in 1.5 mi Calm Calm - N/A   Overcast
2:55 AM 37.4 °F 33.8 °F 35.6 °F 93% 30.08 in 2.0 mi NNW 4.6 mph - N/A   Overcast
3:15 AM 37.4 °F 32.8 °F 35.6 °F 93% 30.08 in 2.0 mi North 5.8 mph - N/A   Overcast
5:35 AM 35.6 °F 31.7 °F 35.6 °F 100% 30.11 in 4.0 mi NNW 4.6 mph - 0.01 in Rain Light Rain
5:55 AM 37.4 °F - 35.6 °F 93% 30.10 in 5.0 mi Calm Calm - 0.01 in Rain Light Rain
6:15 AM 35.6 °F 29.9 °F 35.6 °F 100% 30.10 in 4.0 mi North 6.9 mph - N/A   Overcast
6:35 AM 35.6 °F 30.7 °F 35.6 °F 100% 30.12 in 8.0 mi NNW 5.8 mph - N/A   Overcast
6:55 AM 35.6 °F 32.8 °F 35.6 °F 100% 30.12 in 8.0 mi North 3.5 mph - N/A   Overcast
7:15 AM 35.6 °F 29.9 °F 35.6 °F 100% 30.14 in 3.0 mi NNW 6.9 mph - 0.01 in Rain Light Rain
7:35 AM 35.6 °F 29.2 °F 33.8 °F 93% 30.16 in 2.0 mi NNW 8.1 mph - 0.02 in Rain Light Rain
7:55 AM 35.6 °F 32.8 °F 35.6 °F 100% 30.16 in 4.0 mi NNW 3.5 mph - 0.03 in   Overcast
8:15 AM 35.6 °F 31.7 °F 35.6 °F 100% 30.18 in 4.0 mi NNW 4.6 mph - N/A   Overcast
8:35 AM 35.6 °F 30.7 °F 35.6 °F 100% 30.18 in 3.0 mi NNW 5.8 mph - N/A   Overcast
8:55 AM 35.6 °F 29.9 °F 33.8 °F 93% 30.20 in 2.5 mi NNW 6.9 mph - N/A   Overcast
9:15 AM 35.6 °F 29.2 °F 33.8 °F 93% 30.22 in 2.5 mi NNW 8.1 mph 16.1 mph N/A Rain Light Rain
9:35 AM 35.6 °F 28.0 °F 33.8 °F 93% 30.24 in 8.0 mi North 10.4 mph - N/A   Overcast
9:55 AM 35.6 °F 29.2 °F 33.8 °F 93% 30.25 in 5.0 mi NNW 8.1 mph 17.3 mph N/A   Overcast
10:15 AM 35.6 °F 29.2 °F 33.8 °F 93% 30.26 in 6.0 mi NNW 8.1 mph - N/A Rain Light Rain
10:35 AM 35.6 °F 32.8 °F 33.8 °F 93% 30.26 in 9.0 mi North 3.5 mph - 0.01 in   Overcast
10:55 AM 35.6 °F 29.2 °F 33.8 °F 93% 30.26 in 5.0 mi North 8.1 mph - 0.01 in   Overcast
11:15 AM 35.6 °F 31.7 °F 33.8 °F 93% 30.26 in 8.0 mi NNW 4.6 mph - N/A   Overcast
11:35 AM 37.4 °F 32.8 °F 35.6 °F 93% 30.26 in 10.0 mi North 5.8 mph - N/A   Overcast
11:55 AM 37.4 °F 31.4 °F 33.8 °F 87% 30.26 in 5.0 mi North 8.1 mph - N/A Rain Light Rain
12:15 PM 37.4 °F 32.1 °F 35.6 °F 93% 30.25 in 10.0 mi North 6.9 mph - N/A   Overcast
12:35 PM 37.4 °F 32.1 °F 35.6 °F 93% 30.25 in 10.0 mi North 6.9 mph - N/A   Overcast
12:55 PM 37.4 °F 31.4 °F 35.6 °F 93% 30.24 in 10.0 mi NNW 8.1 mph 16.1 mph 0.01 in   Overcast
1:15 PM 37.4 °F 31.4 °F 35.6 °F 93% 30.25 in 10.0 mi North 8.1 mph - N/A   Overcast
1:35 PM 39.2 °F 33.0 °F 35.6 °F 87% 30.25 in 10.0 mi NNW 9.2 mph - N/A   Overcast
1:55 PM 37.4 °F 31.4 °F 33.8 °F 87% 30.25 in 10.0 mi North 8.1 mph - N/A   Overcast
2:15 PM 37.4 °F 32.1 °F 35.6 °F 93% 30.26 in 10.0 mi NW 6.9 mph - N/A   Overcast
2:35 PM 35.6 °F 28.6 °F 33.8 °F 93% 30.27 in 10.0 mi NNW 9.2 mph - N/A   Overcast
2:55 PM 35.6 °F 31.7 °F 33.8 °F 93% 30.27 in 10.0 mi NNW 4.6 mph - N/A   Overcast
3:15 PM 35.6 °F 28.0 °F 33.8 °F 93% 30.28 in 10.0 mi NW 10.4 mph 16.1 mph N/A   Overcast
3:35 PM 35.6 °F 27.5 °F 32.0 °F 87% 30.28 in 10.0 mi NW 11.5 mph - N/A   Overcast
3:55 PM 33.8 °F 27.7 °F 32.0 °F 93% 30.30 in 10.0 mi NNW 6.9 mph - N/A   Overcast
4:15 PM 33.8 °F 26.4 °F 32.0 °F 93% 30.31 in 10.0 mi NW 9.2 mph - N/A   Overcast
4:35 PM 33.8 °F 26.4 °F 32.0 °F 93% 30.32 in 10.0 mi NW 9.2 mph - N/A   Overcast
5:15 PM 32.0 °F 24.8 °F 32.0 °F 100% 30.34 in 10.0 mi NNW 8.1 mph - N/A   Overcast
5:55 PM 32.0 °F 27.5 °F 30.2 °F 93% 30.35 in 10.0 mi NNW 4.6 mph - N/A   Overcast
6:15 PM 32.0 °F 24.8 °F 30.2 °F 93% 30.36 in 10.0 mi NNW 8.1 mph - N/A   Overcast
6:35 PM 32.0 °F 28.7 °F 30.2 °F 93% 30.38 in 10.0 mi North 3.5 mph - N/A   Overcast
6:55 PM 32.0 °F 27.5 °F 30.2 °F 93% 30.38 in 10.0 mi North 4.6 mph - N/A   Overcast
7:15 PM 32.0 °F 25.6 °F 30.2 °F 93% 30.39 in 10.0 mi North 6.9 mph - N/A   Overcast
7:35 PM 32.0 °F 24.8 °F 30.2 °F 93% 30.39 in 10.0 mi NNW 8.1 mph - N/A   Overcast
7:55 PM 32.0 °F 25.6 °F 30.2 °F 93% 30.41 in 10.0 mi NNW 6.9 mph - N/A   Overcast
8:15 PM 32.0 °F 26.4 °F 30.2 °F 93% 30.41 in 10.0 mi North 5.8 mph - N/A   Overcast
8:35 PM 32.0 °F 26.4 °F 30.2 °F 93% 30.42 in 10.0 mi North 5.8 mph - N/A   Overcast
8:55 PM 32.0 °F 25.6 °F 30.2 °F 93% 30.42 in 10.0 mi North 6.9 mph - N/A   Overcast
9:15 PM 32.0 °F 24.2 °F 30.2 °F 93% 30.43 in 10.0 mi NNW 9.2 mph - N/A   Overcast
9:35 PM 32.0 °F 25.6 °F 28.4 °F 87% 30.43 in 10.0 mi NNW 6.9 mph - N/A   Overcast
9:55 PM 32.0 °F 28.7 °F 28.4 °F 87% 30.43 in 10.0 mi North 3.5 mph - N/A   Overcast
10:15 PM 32.0 °F 25.6 °F 30.2 °F 93% 30.44 in 10.0 mi North 6.9 mph - N/A   Overcast
10:35 PM 32.0 °F 24.2 °F 28.4 °F 87% 30.45 in 10.0 mi NNW 9.2 mph - N/A   Overcast
10:55 PM 32.0 °F - 28.4 °F 87% 30.44 in 9.0 mi Calm Calm - N/A   Overcast
11:15 PM 32.0 °F - 28.4 °F 87% 30.45 in 8.0 mi Calm Calm - N/A   Overcast
11:35 PM 32.0 °F - 30.2 °F 93% 30.45 in 3.0 mi Calm Calm - N/A   Overcast
11:55 PM 32.0 °F - 28.4 °F 87% 30.45 in 7.0 mi Calm Calm - N/A   Overcast